Погода в Итакуакесетубе

Бразилия     23°29′09″S   46°22′19″W
темп.,
°C
ветер,
м/с
пор.,
м/с
влажн.,
%
обл.,
%
осадки,
мм/ч
давл.,
гПа
погр.,
м
26 февраля, пт
пт2600:00+18юв239799 0.1 1012212
03:00+18юв129687 0.1 1011148
06:00+18в129789 2.1 1012115
09:00+21всв138689 3.7 1013419
12:00+25вюв117527 3.2 1013789
15:00+23юв358846 12.3 1011573
18:00+20юв3794100 7.6 1011271
21:00+18юв2496100 13.3 1014156
27 февраля, сб
сб2700:00+18ююв1297100 0.6 1014125
03:00+18в1296100 0.6 101276
06:00+17всв119675 0.0 101357
09:00+19в129483 0.1 1015214
12:00+22в248599 0.9 1014483
15:00+22в358878 6.8 1012679
18:00+20вюв249287 2.5 1012216
21:00+19вюв139494 2.9 1014134
28 февраля, вс
вс2800:00+18вюв1293100 0.4 101477
03:00+18всв1293100 0.8 101371
06:00+17всв129692 0.0 101479
09:00+18св139496 0.0 1015201
12:00+26ссв235951 0.0 1014928
15:00+26всв117032 1.4 1012885
18:00+21вюв258831 3.2 1012176
21:00+19юв139262 6.1 101387
1 марта, пн
пн100:00+19всв2392100 0.4 101394
03:00+18св139696 0.4 101293
06:00+17св119699 0.0 101346
09:00+22ссв128080 0.0 1013372
12:00+27с235416 0.8 10131270
15:00+28ссз22529 1.1 10101411
18:00+23вюв128257 0.9 1010179
21:00+20вюв118979 0.9 101253
2 марта, вт
вт200:00+19ссв119293 0.0 101344
03:00+18ссв119382 0.0 101241
06:00+18ссв129472 0.0 101344
09:00+22с238186 0.2 1015329
12:00+27с3556100 0.4 10141371
15:00+28ссв3456100 0.8 10121335
18:00+23ссв128354 2.6 101297
21:00+20всв118676 3.3 101457